Terminal Aerodrome Forecast
Issued by NWS

Home | Current Version | Previous Version | Text Only | Print | Product List | Glossary On
Versions: 1 2 3 4 5 6 7 8 9 10 11 12 13 14 15 16 17 18 19 20 21 22 23 24 25 26 27
000
FTUS45 KBYZ 212327
TAFLVM
TAF
KLVM 212327Z 2200/2224 07014G19KT P6SM SCT200
     FM220400 VRB06KT P6SM FEW090 BKN180
     FM221500 25012KT P6SM VCSH SCT080 BKN120=

USA.gov is the U.S. government's official web portal to all federal, state and local government web resources and services.